Theta_e
308 309 309 308 307 306 302 294 285 301 304 287 287 285 290 294 292 293 292 290 290 287 287 285 285 286 289 293 292 287 290 286 278 286 292 294 292 288 287 280 279 282 280 280
307 308 309 308 307 306 296 289 290 301 301 283 283 289 291 292 292 290 289 288 290 289 283 279 283 287 292 292 291 289 290 283 278 280 286 291 287 289 289 288 287 280 272 276
306 307 308 308 307 306 299 292 283 289 295 292 288 286 287 288 294 292 292 290 290 287 283 287 280 286 291 293 293 296 293 285 281 275 281 286 283 286 288 286 276 280 280 282
305 306 308 308 307 306 300 293 287 289 284 285 288 289 289 288 287 291 291 288 287 285 279 282 281 287 289 291 295 292 288 281 284 285 286 286 285 285 285 284 284 279 281 283
303 305 306 308 306 306 296 288 289 290 287 289 287 288 288 288 289 289 287 286 288 288 283 284 282 286 286 286 290 289 290 281 284 280 286 286 282 284 284 285 286 286 285 284
303 304 305 306 306 305 293 296 297 292 288 286 284 285 287 289 291 292 292 289 287 286 289 291 291 292 291 290 288 287 287 284 282 279 285 285 279 282 284 286 288 287 282 287
302 303 304 305 306 304 297 296 295 289 280 287 286 289 289 289 290 288 291 291 288 292 296 295 293 291 291 290 290 291 286 284 283 278 281 273 282 291 290 288 289 289 291 293
301 302 303 304 305 305 298 299 296 290 281 288 289 290 289 289 291 288 289 292 293 297 293 285 283 283 284 286 289 289 290 286 282 278 277 281 285 288 287 287 286 292 292 293
300 301 302 303 304 305 300 299 301 295 286 284 291 288 290 285 285 286 289 293 295 294 288 282 277 276 281 281 286 290 289 288 283 279 276 273 283 292 296 294 279 293 293 292
300 301 301 302 304 305 301 298 302 296 288 291 291 287 287 290 288 285 289 290 290 292 280 280 277 278 284 278 280 281 283 283 280 280 278 281 289 293 296 281 284 293 292 293
300 301 301 302 303 304 301 298 303 297 290 290 294 294 289 291 290 283 289 288 289 288 282 281 280 280 283 283 286 284 283 282 281 282 280 277 294 293 286 289 293 294 293 294
300 300 301 302 302 303 302 296 303 303 294 290 296 297 298 296 295 290 290 289 289 290 284 285 286 282 284 285 279 291 283 287 285 285 281 291 295 293 298 296 294 294 293 294
299 300 301 303 303 302 302 298 300 297 292 290 289 289 295 300 297 298 287 289 294 291 294 290 287 283 285 279 282 286 291 294 288 288 289 294 296 297 297 295 295 296 296 294
299 300 301 301 303 302 303 297 299 296 293 281 286 298 294 299 298 297 297 294 295 294 292 289 287 283 289 284 287 287 289 292 289 287 290 294 296 297 298 297 297 296 296 294
299 301 302 301 302 303 302 300 300 300 292 286 285 293 297 298 297 295 295 294 291 289 285 285 284 289 288 287 287 285 292 289 287 286 293 293 293 297 299 296 295 295 294 293
301 302 303 302 303 302 298 288 299 301 299 289 278 291 292 295 295 295 294 293 291 289 287 288 290 292 289 281 280 291 295 298 298 293 297 295 295 296 298 296 295 295 294 293
302 302 302 302 302 299 292 288 295 301 297 288 280 282 290 294 294 292 292 293 291 291 290 287 288 289 291 286 282 290 293 294 295 296 294 290 292 291 295 294 294 296 294 293
302 302 302 301 300 299 292 295 300 300 293 290 281 281 286 295 286 287 292 289 291 290 288 287 287 289 288 283 289 291 293 293 294 296 296 294 294 294 293 293 292 291 290 290
301 300 299 295 292 289 291 301 300 299 291 282 281 279 277 293 289 289 288 290 284 290 285 286 288 285 282 288 290 291 293 293 294 295 294 294 293 293 292 292 291 289 288 288
299 295 290 285 291 301 299 295 289 288 290 289 284 286 280 290 287 286 285 285 284 281 284 290 286 283 290 293 294 295 295 296 295 291 290 291 292 292 291 291 290 290 289 288
292 288 287 294 300 293 289 284 283 284 282 285 285 285 283 291 285 284 287 284 285 282 285 285 282 282 289 293 294 297 297 296 296 296 296 295 293 290 289 289 290 289 287 285
294 293 295 294 289 286 282 279 282 282 280 284 282 284 288 288 292 286 287 285 284 281 288 283 276 282 290 292 295 295 296 297 294 294 293 293 292 291 290 289 287 285 284 282
295 290 286 285 284 278 277 275 279 278 283 286 285 286 287 287 289 285 285 283 278 285 276 276 280 286 291 292 292 291 292 293 292 293 292 291 290 291 289 285 284 283 282 279
285 283 278 279 278 279 280 282 283 285 285 288 288 285 286 287 284 285 282 283 282 275 273 278 282 284 287 291 291 289 287 286 286 286 285 283 283 282 280 280 279 279 278 273
284 284 276 277 282 285 284 284 285 288 290 290 287 286 287 285 282 283 283 277 274 277 277 284 282 285 286 287 287 285 286 284 284 283 282 280 281 282 282 281 277 278 276 276
284 283 279 281 281 282 284 284 284 288 289 289 288 284 283 282 283 281 278 279 276 281 283 284 286 285 286 286 286 286 286 285 284 284 283 282 278 281 281 278 276 275 276 275
283 281 283 282 283 284 285 285 285 292 287 285 284 281 281 284 281 280 281 278 282 283 283 284 285 285 285 285 285 286 286 285 285 283 283 283 280 279 280 278 276 279 277 276
Wind_Speed
13 16 21 21 20 16 8 3 2 3 6 4 4 9 4 6 11 4 2 1 4 5 2 4 4 2 2 10 7 3 3 1 4 7 8 13 9 8 3 4 6 5 5 13
13 15 22 22 22 22 5 3 3 3 4 5 7 7 12 19 18 4 6 4 5 3 3 3 3 5 8 9 6 3 5 3 4 8 5 7 3 7 7 7 1 3 4 7
15 15 20 24 25 24 6 3 3 3 4 4 3 11 13 15 16 7 6 5 4 2 3 2 3 2 3 7 3 6 4 2 4 6 6 9 9 14 13 6 1 6 6 9
13 15 19 25 28 28 7 3 5 7 7 6 10 7 7 11 14 4 4 4 6 3 1 3 4 4 6 9 3 4 4 5 6 12 12 13 17 16 15 13 13 7 13 15
14 13 17 24 29 27 7 4 4 4 3 8 12 10 5 14 12 11 8 7 7 7 7 9 6 7 7 8 3 1 3 5 5 10 11 14 19 14 14 18 19 18 20 20
17 15 15 17 29 21 4 4 4 5 5 5 7 8 15 10 9 5 8 11 8 6 2 5 3 2 2 3 2 2 2 1 3 10 8 11 13 12 16 18 19 13 16 17
18 16 14 17 23 24 2 6 1 4 4 6 11 10 15 14 10 9 2 4 3 1 7 6 4 4 5 7 9 8 6 3 3 4 4 11 9 8 12 15 11 13 4 12
19 18 15 15 21 29 9 3 5 3 3 4 9 16 12 13 8 4 1 1 2 8 7 4 3 4 3 11 20 17 12 6 4 4 6 11 15 12 8 1 5 1 3 3
20 19 17 14 19 30 17 9 2 1 4 5 9 7 12 4 4 2 5 5 3 6 3 2 3 4 3 5 5 13 14 12 8 3 4 5 4 4 5 3 5 4 4 7
20 20 17 17 21 30 18 5 6 3 2 5 3 3 5 2 3 3 3 4 3 5 3 3 3 5 5 5 4 2 5 10 17 10 8 8 5 4 2 5 5 3 3 7
22 21 18 19 22 32 22 7 5 3 2 4 5 4 3 0 3 4 2 5 3 3 3 4 5 4 5 5 8 11 7 5 4 6 6 9 3 6 4 7 3 4 2 5
20 20 20 22 16 20 24 4 2 2 3 2 3 3 3 3 7 4 2 2 2 3 3 3 2 3 3 2 4 2 3 6 6 5 8 5 3 5 3 2 3 2 6 8
18 20 22 26 20 35 26 4 4 4 3 4 2 4 4 3 3 6 4 2 5 2 2 2 2 4 2 2 4 5 9 6 3 3 5 2 6 8 4 2 3 5 10 10
18 21 23 14 33 37 23 6 2 5 1 3 6 5 4 5 5 7 6 5 2 3 3 1 2 3 2 3 3 4 6 4 2 3 13 7 4 12 7 3 5 7 8 9
20 24 24 26 23 26 11 4 2 5 3 1 3 7 7 8 8 10 7 7 4 2 2 3 3 3 3 3 4 5 5 4 4 4 8 3 7 12 9 7 6 7 7 5
25 25 25 31 26 22 6 3 1 2 2 1 2 4 4 7 7 9 7 5 4 4 4 3 3 4 1 4 4 6 5 5 9 7 5 4 3 5 4 7 7 7 7 7
25 26 28 22 23 9 4 3 4 11 4 2 2 4 4 8 6 4 3 5 3 4 3 4 3 3 1 3 8 6 12 13 5 4 6 2 2 3 3 8 7 8 7 7
27 30 28 26 21 12 4 3 10 7 4 1 1 4 1 4 1 3 3 2 3 2 3 1 3 3 5 9 7 12 15 14 11 8 5 2 6 7 7 8 5 7 7 6
32 30 23 8 5 3 2 12 10 3 3 4 3 2 3 3 2 2 2 1 2 2 4 4 4 3 9 9 10 9 12 9 6 7 7 5 7 8 8 7 6 7 6 7
24 7 6 3 1 19 9 3 2 2 1 1 3 2 3 5 2 3 2 3 3 4 7 5 5 6 13 13 14 11 11 6 9 8 5 5 5 7 7 6 7 8 7 6
4 4 3 4 15 4 2 3 3 3 3 4 5 7 4 3 3 4 4 3 3 4 5 6 4 4 5 10 12 4 4 5 7 7 6 6 7 8 7 7 7 8 8 6
7 7 6 3 2 2 3 4 3 5 6 5 4 5 7 2 4 3 2 3 3 3 7 2 2 3 4 5 8 8 9 7 6 7 8 8 9 9 9 8 8 7 8 8
3 5 3 2 1 3 7 7 5 4 4 5 4 3 3 1 2 1 2 5 4 2 2 4 4 1 6 5 7 8 7 7 8 11 11 11 10 10 12 9 7 8 8 5
3 4 5 4 4 4 3 1 1 3 2 4 4 3 3 3 3 2 3 2 2 2 2 3 0 3 6 5 7 11 7 9 11 10 10 10 11 9 8 7 6 8 7 4
3 2 2 4 2 1 2 2 1 2 2 4 3 3 2 2 2 2 2 2 3 5 2 1 1 4 5 5 7 8 8 6 7 5 8 8 9 9 8 5 5 7 6 6
1 2 1 2 1 1 1 1 3 2 2 3 2 2 4 3 2 4 5 4 5 1 2 1 1 4 4 5 6 5 5 6 8 7 7 7 6 8 8 5 5 5 6 7
2 1 0 2 1 1 1 1 2 3 1 1 2 4 5 3 3 3 1 1 2 2 2 1 3 3 3 4 5 4 6 7 8 8 8 8 6 6 7 8 2 5 5 5
Wind_Direction
262 233 199 188 173 162 138 206 214 233 118 141 201 236 260 297 295 94 16 224 273 272 346 353 334 345 337 39 357 343 21 243 280 240 297 298 290 283 303 129 263 211 192 258
272 253 209 189 176 162 141 203 208 225 142 201 217 259 250 253 276 244 172 244 228 5 19 63 10 344 346 3 23 43 341 328 343 327 309 291 303 325 346 326 100 251 151 268
268 258 228 192 178 181 183 162 174 280 205 249 227 225 256 248 241 256 291 259 278 85 359 113 227 296 301 330 111 141 81 221 205 207 264 318 300 310 320 327 59 308 248 277
265 265 238 205 185 187 178 215 208 181 189 216 231 238 279 255 240 184 254 278 212 178 193 328 276 269 286 284 232 185 167 222 263 274 284 290 293 298 299 290 273 253 279 266
258 262 247 221 184 180 200 184 178 147 188 171 200 219 246 253 259 172 234 249 254 215 204 186 202 227 236 226 293 280 198 244 242 272 265 270 271 266 260 263 271 267 270 273
251 255 258 230 194 174 137 246 285 110 233 203 188 216 215 249 224 239 222 208 228 267 322 81 99 68 305 286 291 310 293 354 316 275 277 301 281 240 244 251 252 250 257 269
247 250 253 229 201 180 189 222 232 136 257 194 202 224 217 243 241 225 328 140 117 358 60 44 12 318 260 257 241 212 223 237 283 289 11 267 247 234 245 251 265 259 358 328
245 242 242 232 221 180 199 236 221 177 217 211 214 226 216 228 238 184 289 130 120 95 51 44 320 295 279 238 238 228 210 202 249 243 219 284 305 287 278 91 279 202 89 176
243 235 238 237 221 195 189 245 271 151 115 245 252 233 213 178 161 174 214 253 144 99 95 100 223 240 286 274 236 218 206 199 206 216 240 264 227 120 80 157 291 183 183 170
237 228 234 238 223 200 180 230 242 137 175 273 219 203 170 235 130 150 195 190 165 122 117 168 219 241 254 248 253 263 179 199 214 221 244 270 262 130 71 61 232 220 193 163
233 222 232 235 246 198 176 206 246 164 188 289 22 25 94 337 62 142 258 47 347 49 127 185 221 244 247 249 261 255 248 199 188 206 231 260 341 115 171 217 183 175 115 123
226 220 228 232 180 160 170 204 178 99 74 275 314 291 275 53 106 111 51 139 356 147 165 222 308 315 336 298 264 99 286 197 179 193 218 223 202 169 244 279 201 175 125 134
220 225 221 207 213 178 186 151 119 76 60 328 20 254 266 132 150 147 129 274 129 161 163 186 251 263 333 277 279 357 355 312 223 339 265 187 337 317 304 217 325 119 127 132
226 228 212 192 186 169 179 160 131 93 155 154 268 200 227 216 176 187 181 191 27 105 112 171 254 266 274 258 248 260 236 264 274 286 282 322 328 253 199 151 112 92 115 142
239 207 181 162 167 165 148 110 142 132 141 200 274 324 234 200 196 198 198 171 161 142 128 188 234 257 265 274 244 249 214 224 186 213 253 201 201 214 191 144 136 136 124 118
195 183 161 165 171 138 113 93 213 145 116 67 308 296 263 215 193 188 194 181 160 152 172 174 217 241 185 253 249 242 180 174 198 219 188 155 117 84 95 129 137 121 128 129
146 140 148 154 138 120 95 161 150 156 110 133 300 271 243 215 170 185 170 174 173 155 190 199 211 207 232 265 245 305 292 294 305 160 111 73 137 160 90 108 103 111 110 118
142 133 130 116 103 110 77 12 126 113 100 136 237 260 265 16 132 125 358 108 95 187 175 224 214 180 201 245 243 246 252 259 265 190 185 189 148 122 102 103 109 112 116 109
107 104 94 72 56 92 112 106 67 64 104 173 175 215 246 20 85 78 62 97 211 174 216 195 183 200 226 228 235 241 251 241 220 158 141 151 137 143 131 136 146 121 116 109
103 73 67 83 143 118 113 50 89 96 208 263 235 244 232 144 151 170 166 191 215 205 222 164 215 247 242 242 231 244 272 175 128 120 148 146 147 143 142 141 129 130 127 121
52 70 71 93 138 62 66 137 167 157 218 208 223 203 171 204 153 204 201 201 211 218 178 195 201 257 253 239 224 172 102 116 133 161 184 194 151 136 120 105 116 119 125 125
102 97 75 70 135 137 149 164 184 200 222 185 191 214 187 171 165 135 220 236 214 267 139 188 266 268 8 17 88 96 70 16 86 90 82 91 102 107 103 98 95 92 105 108
69 65 99 161 107 151 176 184 197 203 220 182 177 103 115 65 59 140 226 229 232 342 65 223 217 356 10 80 81 76 81 94 68 69 67 74 71 81 101 98 96 104 97 94
96 140 139 196 170 238 188 333 58 262 307 82 100 110 145 149 152 181 252 269 29 348 222 221 270 11 344 58 77 80 60 68 74 71 78 78 84 75 61 85 109 115 116 113
67 74 212 208 229 123 194 210 314 281 307 139 103 94 130 133 137 225 187 9 262 206 231 99 44 14 7 74 93 100 91 86 82 80 91 90 96 100 98 84 94 105 111 110
90 234 305 288 1 235 309 302 272 231 274 92 124 157 169 176 199 184 209 202 219 139 61 30 22 69 41 60 74 92 104 104 112 111 108 106 103 120 119 101 93 104 120 123
297 280 132 181 223 300 343 288 267 326 85 150 192 197 192 155 194 213 135 101 76 135 117 81 43 80 92 82 82 76 96 108 117 118 122 122 109 113 110 110 93 104 109 113